TimeCDT,TemperatureF,Dew PointF,Humidity,Sea Level PressureIn,VisibilityMPH,Wind Direction,Wind SpeedMPH,Gust SpeedMPH,PrecipitationIn,Events,Conditions,WindDirDegrees,DateUTC
12:58 AM,76.8,73.2,89,29.98,10.0,NE,2.3,-,N/A,,Clear,40,2013-09-09 05:58:00
1:58 AM,76.8,73.6,90,29.97,10.0,Calm,Calm,-,N/A,,Clear,0,2013-09-09 06:58:00
2:58 AM,76.3,72.9,89,29.97,10.0,NNE,3.5,-,N/A,,Clear,30,2013-09-09 07:58:00
3:58 AM,74.7,71.6,90,29.98,10.0,NNE,2.3,-,N/A,,Clear,20,2013-09-09 08:58:00
4:58 AM,74.7,72.0,91,29.99,10.0,NE,6.9,-,N/A,,Clear,50,2013-09-09 09:58:00
5:58 AM,73.9,71.1,91,30.01,10.0,ENE,2.3,-,N/A,,Clear,70,2013-09-09 10:58:00
6:58 AM,73.6,71.1,92,30.02,10.0,NE,5.8,-,N/A,,Clear,40,2013-09-09 11:58:00
7:58 AM,73.6,71.1,92,30.02,10.0,NE,5.8,-,N/A,,Clear,40,2013-09-09 12:58:00
8:58 AM,81.0,72.5,75,30.05,10.0,NNE,3.5,-,N/A,,Clear,30,2013-09-09 13:58:00
9:58 AM,85.1,72.9,67,30.06,10.0,NE,5.8,-,N/A,,Clear,40,2013-09-09 14:58:00
10:58 AM,87.8,72.0,59,30.06,10.0,NE,6.9,-,N/A,,Clear,50,2013-09-09 15:58:00
11:58 AM,90.0,70.7,53,30.06,10.0,Variable,3.5,-,N/A,,Clear,0,2013-09-09 16:58:00
12:58 PM,90.9,71.2,52,30.05,10.0,South,9.2,-,N/A,,Scattered Clouds,190,2013-09-09 17:58:00
1:58 PM,91.4,69.1,48,30.04,10.0,South,9.2,-,N/A,,Partly Cloudy,170,2013-09-09 18:58:00
2:58 PM,91.0,69.4,49,30.03,10.0,South,9.2,-,N/A,,Clear,180,2013-09-09 19:58:00
3:58 PM,90.0,69.1,50,30.02,10.0,SSE,6.9,-,N/A,,Clear,160,2013-09-09 20:58:00
4:58 PM,88.7,70.3,54,30.02,10.0,SSW,8.1,-,N/A,,Clear,200,2013-09-09 21:58:00
5:58 PM,87.1,69.1,55,30.02,10.0,South,6.9,-,N/A,,Clear,190,2013-09-09 22:58:00
6:58 PM,84.9,70.2,61,30.01,10.0,South,4.6,-,N/A,,Clear,180,2013-09-09 23:58:00
7:58 PM,84.0,70.3,63,30.01,10.0,South,3.5,-,N/A,,Clear,170,2013-09-10 00:58:00
8:58 PM,81.1,70.7,70,30.03,10.0,SW,3.5,-,N/A,,Clear,230,2013-09-10 01:58:00
9:58 PM,81.3,70.3,69,30.04,10.0,South,2.3,-,N/A,,Clear,180,2013-09-10 02:58:00
10:58 PM,81.0,70.9,71,30.04,10.0,Calm,Calm,-,N/A,,Clear,0,2013-09-10 03:58:00
11:58 PM,78.1,73.4,85,30.04,10.0,ENE,3.5,-,N/A,,Clear,70,2013-09-10 04:58:00